This demonstration page uses our WeatherBlox Daily Observations layout. Learn more.

Left ArrowRight Arrow

Hourly Observations for September 17, 2022

Temp ( °F °C ) Dew Point ( °F °C ) Humidity (%) Winds ( mph kmh ) Pressure ( in mb ) Visibility ( mi km ) Precip ( " mm )
12:55 am 00:55 Clear 66 19.1 60 15.6 80 80 SE 7 11 29.90 1013 10 16 0.00 0.00
1:55 am 01:55 Mostly Clear 67 19.5 59 15.1 76 76 ESE 6 9 29.88 1012 10 16 0.00 0.00
2:55 am 02:55 undefined 67 19.6 59 15 75 75 SE 8 13 29.84 1011 10 16 0.00 0.00
3:55 am 03:55 Mostly Cloudy with Thunderstorms 69 20.7 60 15.7 73 73 WNW 20 31 29.90 1013 9 14 0.00 0.00
4:06 am 04:06 Mostly Cloudy with Strong Thunderstorms 70 21 61 16 73 73 NNW 10 17 29.90 1013 10 16 0.00 0.00
4:55 am 04:55 Mostly Cloudy 67 19.7 62 16.7 83 83 NNE 5 7 29.90 1013 10 16 0.08 2.03
5:29 am 05:29 Cloudy with Thunderstorms 68 20 63 17 83 83 NE 6 9 29.88 1012 10 16 0.00 0.00
5:55 am 05:55 Cloudy with Thunderstorms 67 19.5 62 16.9 85 85 ENE 8 13 29.88 1012 10 16 0.00 0.00
6:14 am 06:14 Cloudy with Thunderstorms 68 20 63 17 83 83 NE 5 7 29.90 1013 10 16 0.00 0.00
6:25 am 06:25 Mostly Cloudy with Mist and Fog 66 19 63 17 88 88 ENE 7 11 29.88 1012 2 2 0.00 0.00
6:40 am 06:40 Mostly Cloudy with Strong Thunderstorms 66 19 63 17 88 88 E 10 17 29.87 1012 4 6 0.00 0.00
6:55 am 06:55 Mostly Cloudy with Light Rain 66 18.9 62 16.9 88 88 SSE 12 19 29.87 1012 10 16 0.44 11.18
7:28 am 07:28 Mostly Cloudy with Thunderstorms 66 19 63 17 88 88 SSE 12 19 29.91 1013 10 16 0.00 0.00
7:55 am 07:55 Mostly Cloudy with Showers and Scattered Storms 67 19.2 62 16.6 85 85 SE 3 6 29.93 1013 10 16 0.01 0.13
8:28 am 08:28 Cloudy with Light Rain 66 19 63 17 88 88 SSE 5 7 29.95 1014 10 16 0.00 0.00
8:47 am 08:47 Cloudy with Rain 66 19 63 17 88 88 SE 31 50 29.88 1012 6 10 0.00 0.00
8:55 am 08:55 Cloudy with Rain 66 18.8 63 17.3 91 91 SE 21 33 29.86 1011 4 6 0.06 1.52
9:03 am 09:03 Mostly Cloudy with Rain 66 19 63 17 88 88 NE 13 20 29.85 1011 8 13 0.00 0.00
9:30 am 09:30 Cloudy 70 21 61 16 73 73 WNW 13 20 29.88 1012 10 16 0.00 0.00
9:55 am 09:55 Mostly Cloudy 69 20.8 63 17 79 79 SW 7 11 29.91 1013 10 16 0.01 0.25
10:19 am 10:19 Mostly Cloudy with Light Rain 68 20 64 18 88 88 SSW 14 22 29.96 1014 10 16 0.00 0.00
10:55 am 10:55 Mostly Cloudy 68 19.9 64 17.8 88 88 SE 12 19 29.92 1013 10 16 0.01 0.13
11:55 am 11:55 Mostly Cloudy 68 20.2 62 16.8 81 81 SSE 14 22 29.88 1012 10 16 0.00 0.00
12:55 pm 12:55 Partly Cloudy 71 21.6 64 18 80 80 S 7 11 29.85 1011 10 16 0.00 0.00
1:55 pm 13:55 Mostly Cloudy 74 23.3 65 18.2 73 73 S 17 28 29.88 1012 10 16 0.00 0.00
2:55 pm 14:55 Partly Cloudy 78 25.7 65 18.1 63 63 S 18 30 29.85 1011 10 16 0.00 0.00
3:55 pm 15:55 Mostly Sunny 81 27.1 67 19.7 64 64 S 10 17 29.84 1011 10 16 0.00 0.00
4:55 pm 16:55 Mostly Cloudy 82 27.9 68 20.2 63 63 SE 9 15 29.82 1010 10 16 0.00 0.00
5:55 pm 17:55 Mostly Cloudy 81 27.3 69 20.4 66 66 SSE 6 9 29.82 1010 10 16 0.00 0.00
6:55 pm 18:55 Partly Cloudy 80 26.8 70 21.1 71 71 E 3 6 29.81 1010 10 16 0.00 0.00
7:55 pm 19:55 Partly Cloudy 78 25.5 69 20.7 75 75 E 7 11 29.80 1009 10 16 0.00 0.00
8:55 pm 20:55 Mostly Cloudy 75 23.8 68 19.9 79 79 ENE 7 11 29.83 1010 10 16 0.00 0.00
9:55 pm 21:55 Cloudy 74 23.2 68 20.1 83 83 NE 10 17 29.84 1011 10 16 0.00 0.00
10:55 pm 22:55 Mostly Cloudy 73 22.7 67 19.2 81 81 E 9 15 29.85 1011 10 16 0.00 0.00
11:55 pm 23:55 Mostly Cloudy 71 21.9 66 18.7 82 82 E 3 6 29.86 1011 10 16 0.00 0.00

Powered by AerisWeather